WZZ41MK EPGD-EKCH

Flight info

Callsign WZZ41MK
Flight time 0h 43m
Altitude 30000
Route DEXIR Y100 MALOX L621 LUSID DCT ROE M743 TIDVU
Aircraft A321/M-SDE1E2E3FGIJ1J4RWXY/LB1

Departure

Time 2026-05-05 21:29
Airport Gdańsk Lech Wałęsa Airport (EPGD)

Arrival

Time 2026-05-05 22:12
Airport Copenhagen Kastrup Airport (EKCH)
Time Latitude Longitude Altitude Speed Heading
2026-05-05 21:09 54.38098 18.46676 460 ft 0 kts 23°
2026-05-05 21:19 54.38091 18.46671 458 ft 4 kts 30°
2026-05-05 21:19 54.38075 18.46640 458 ft 4 kts 76°
2026-05-05 21:20 54.38074 18.46596 460 ft 4 kts 102°
2026-05-05 21:20 54.38080 18.46560 455 ft 0 kts 113°
2026-05-05 21:23 54.38076 18.46574 460 ft 4 kts 113°
2026-05-05 21:23 54.38041 18.46617 460 ft 8 kts 180°
2026-05-05 21:23 54.37984 18.46586 460 ft 9 kts 198°
2026-05-05 21:23 54.37933 18.46634 459 ft 10 kts 115°
2026-05-05 21:24 54.37904 18.46750 458 ft 11 kts 113°
2026-05-05 21:24 54.37872 18.46882 459 ft 13 kts 113°
2026-05-05 21:24 54.37835 18.47029 459 ft 14 kts 113°
2026-05-05 21:24 54.37795 18.47191 460 ft 15 kts 113°
2026-05-05 21:25 54.37752 18.47366 460 ft 16 kts 112°
2026-05-05 21:25 54.37708 18.47541 463 ft 16 kts 113°
2026-05-05 21:25 54.37667 18.47706 466 ft 15 kts 112°
2026-05-05 21:25 54.37629 18.47862 469 ft 14 kts 112°
2026-05-05 21:26 54.37594 18.48006 472 ft 13 kts 113°
2026-05-05 21:26 54.37571 18.48096 474 ft 12 kts 113°
2026-05-05 21:26 54.37537 18.48230 476 ft 17 kts 112°
2026-05-05 21:26 54.37473 18.48492 482 ft 25 kts 113°
2026-05-05 21:27 54.37410 18.48750 489 ft 22 kts 112°
2026-05-05 21:27 54.37350 18.48992 491 ft 21 kts 113°
2026-05-05 21:27 54.37302 18.49145 487 ft 10 kts 146°
2026-05-05 21:27 54.37231 18.49131 495 ft 12 kts 201°
2026-05-05 21:28 54.37164 18.49055 488 ft 12 kts 254°
2026-05-05 21:28 54.37196 18.48891 492 ft 22 kts 293°
2026-05-05 21:28 54.37354 18.48253 480 ft 97 kts 293°
2026-05-05 21:28 54.37709 18.46829 461 ft 159 kts 293°
2026-05-05 21:29 54.38161 18.45046 1093 ft 160 kts 296°
2026-05-05 21:29 54.38592 18.43304 1797 ft 163 kts 296°
2026-05-05 21:29 54.39060 18.41400 2118 ft 183 kts 296°
2026-05-05 21:29 54.39589 18.39266 2348 ft 206 kts 295°
2026-05-05 21:30 54.40183 18.36865 2665 ft 227 kts 295°
2026-05-05 21:30 54.40783 18.34275 3214 ft 244 kts 291°
2026-05-05 21:30 54.41342 18.31403 3720 ft 259 kts 288°
2026-05-05 21:30 54.41878 18.28420 4515 ft 263 kts 287°
2026-05-05 21:31 54.42408 18.25401 5349 ft 265 kts 287°
2026-05-05 21:31 54.42943 18.22354 6186 ft 267 kts 286°
2026-05-05 21:31 54.43484 18.19290 6987 ft 269 kts 286°
2026-05-05 21:31 54.44030 18.16212 7773 ft 271 kts 285°
2026-05-05 21:32 54.44585 18.13106 8561 ft 273 kts 285°
2026-05-05 21:32 54.45146 18.09977 9360 ft 275 kts 285°
2026-05-05 21:32 54.45713 18.06823 10086 ft 279 kts 285°
2026-05-05 21:32 54.46305 18.03498 10302 ft 302 kts 284°
2026-05-05 21:33 54.46938 17.99919 10537 ft 321 kts 285°
2026-05-05 21:33 54.47598 17.96204 11106 ft 327 kts 285°
2026-05-05 21:33 54.48269 17.92441 11811 ft 331 kts 285°
2026-05-05 21:33 54.48944 17.88644 12502 ft 334 kts 285°
2026-05-05 21:34 54.49626 17.84806 13199 ft 337 kts 284°
2026-05-05 21:34 54.50312 17.80944 13870 ft 339 kts 284°
2026-05-05 21:34 54.51003 17.77044 14508 ft 342 kts 284°
2026-05-05 21:34 54.51697 17.73116 15152 ft 344 kts 284°
2026-05-05 21:35 54.52391 17.69175 15816 ft 345 kts 284°
2026-05-05 21:35 54.53086 17.65211 16475 ft 347 kts 284°
2026-05-05 21:35 54.53783 17.61224 17131 ft 349 kts 284°
2026-05-05 21:35 54.54482 17.57216 17772 ft 351 kts 284°
2026-05-05 21:36 54.55184 17.53186 18388 ft 352 kts 284°
2026-05-05 21:36 54.55891 17.49128 18934 ft 354 kts 284°
2026-05-05 21:36 54.56599 17.45045 19488 ft 357 kts 284°
2026-05-05 21:36 54.57299 17.40998 20056 ft 358 kts 284°
2026-05-05 21:37 54.58009 17.36872 20624 ft 360 kts 284°
2026-05-05 21:37 54.58722 17.32722 21195 ft 362 kts 284°
2026-05-05 21:37 54.59438 17.28547 21743 ft 364 kts 283°
2026-05-05 21:37 54.60157 17.24340 22288 ft 367 kts 283°
2026-05-05 21:38 54.60880 17.20116 22800 ft 369 kts 283°
2026-05-05 21:38 54.61607 17.15861 23309 ft 371 kts 283°
2026-05-05 21:38 54.62338 17.11574 23755 ft 373 kts 283°
2026-05-05 21:38 54.63071 17.07271 24178 ft 375 kts 283°
2026-05-05 21:39 54.63804 17.02940 24599 ft 377 kts 283°
2026-05-05 21:39 54.64535 16.98589 25016 ft 378 kts 283°
2026-05-05 21:39 54.65270 16.94220 25432 ft 380 kts 283°
2026-05-05 21:39 54.66007 16.89836 25885 ft 381 kts 283°
2026-05-05 21:40 54.66746 16.85438 26309 ft 382 kts 282°
2026-05-05 21:40 54.67486 16.81022 26713 ft 383 kts 282°
2026-05-05 21:40 54.68225 16.76590 27110 ft 385 kts 282°
2026-05-05 21:40 54.68967 16.72134 27503 ft 387 kts 282°
2026-05-05 21:41 54.69711 16.67657 27893 ft 388 kts 282°
2026-05-05 21:41 54.70457 16.63165 28276 ft 390 kts 282°
2026-05-05 21:41 54.71204 16.58649 28646 ft 392 kts 282°
2026-05-05 21:41 54.71949 16.54104 28999 ft 393 kts 282°
2026-05-05 21:42 54.72694 16.49540 29354 ft 395 kts 282°
2026-05-05 21:42 54.73443 16.44955 29714 ft 397 kts 282°
2026-05-05 21:42 54.74196 16.40351 29916 ft 396 kts 282°
2026-05-05 21:42 54.74931 16.35859 29925 ft 381 kts 282°
2026-05-05 21:43 54.76349 16.27135 29936 ft 374 kts 281°
2026-05-05 21:43 54.77738 16.18462 29923 ft 373 kts 281°
2026-05-05 21:44 54.79125 16.09796 29926 ft 373 kts 281°
2026-05-05 21:44 54.80517 16.01128 29931 ft 373 kts 281°
2026-05-05 21:45 54.81902 15.92453 29931 ft 373 kts 281°
2026-05-05 21:45 54.83273 15.83766 29937 ft 374 kts 282°
2026-05-05 21:46 54.84868 15.75217 29934 ft 376 kts 285°
2026-05-05 21:46 54.86655 15.66690 29944 ft 376 kts 285°
2026-05-05 21:47 54.88425 15.58147 29940 ft 376 kts 284°
2026-05-05 21:47 54.90146 15.49578 29946 ft 375 kts 284°
2026-05-05 21:48 54.91841 15.40999 29970 ft 375 kts 284°
2026-05-05 21:48 54.93531 15.32406 29957 ft 375 kts 284°
2026-05-05 21:49 54.95213 15.23821 29950 ft 375 kts 284°
2026-05-05 21:49 54.96893 15.15224 29950 ft 375 kts 284°
2026-05-05 21:50 54.98569 15.06622 29944 ft 375 kts 284°
2026-05-05 21:50 55.00243 14.97960 29925 ft 385 kts 284°
2026-05-05 21:51 55.01977 14.88925 29927 ft 398 kts 284°
2026-05-05 21:51 55.03745 14.79760 29920 ft 399 kts 284°
2026-05-05 21:52 55.05509 14.70587 29592 ft 396 kts 284°
2026-05-05 21:52 55.06375 14.66068 29079 ft 390 kts 284°
2026-05-05 21:52 55.07225 14.61614 28579 ft 384 kts 284°
2026-05-05 21:53 55.08060 14.57228 28088 ft 378 kts 284°
2026-05-05 21:53 55.08880 14.52897 27602 ft 373 kts 284°
2026-05-05 21:53 55.09685 14.48623 27129 ft 368 kts 284°
2026-05-05 21:53 55.10478 14.44399 26659 ft 364 kts 284°
2026-05-05 21:54 55.11261 14.40227 26205 ft 360 kts 284°
2026-05-05 21:54 55.12034 14.36097 25780 ft 356 kts 284°
2026-05-05 21:54 55.12797 14.32004 25336 ft 353 kts 284°
2026-05-05 21:54 55.13545 14.27994 24908 ft 351 kts 284°
2026-05-05 21:55 55.14307 14.23901 24462 ft 348 kts 284°
2026-05-05 21:55 55.15052 14.19884 24038 ft 347 kts 284°
2026-05-05 21:55 55.15792 14.15883 23615 ft 345 kts 284°
2026-05-05 21:55 55.16517 14.11960 23150 ft 343 kts 284°
2026-05-05 21:56 55.17257 14.07949 22653 ft 341 kts 284°
2026-05-05 21:56 55.17972 14.04071 22176 ft 338 kts 284°
2026-05-05 21:56 55.18691 14.00168 21704 ft 336 kts 284°
2026-05-05 21:56 55.19404 13.96292 21231 ft 333 kts 284°
2026-05-05 21:57 55.20109 13.92444 20769 ft 331 kts 284°
2026-05-05 21:57 55.20808 13.88626 20312 ft 328 kts 284°
2026-05-05 21:57 55.21501 13.84839 19879 ft 325 kts 284°
2026-05-05 21:57 55.22188 13.81079 19435 ft 323 kts 284°
2026-05-05 21:58 55.22868 13.77347 19003 ft 321 kts 284°
2026-05-05 21:58 55.23539 13.73637 18577 ft 318 kts 284°
2026-05-05 21:58 55.24204 13.69954 18143 ft 316 kts 284°
2026-05-05 21:58 55.24863 13.66299 17653 ft 314 kts 284°
2026-05-05 21:59 55.25515 13.62668 17178 ft 311 kts 284°
2026-05-05 21:59 55.26164 13.59059 16708 ft 309 kts 284°
2026-05-05 21:59 55.26806 13.55471 16244 ft 308 kts 284°
2026-05-05 21:59 55.27445 13.51899 15786 ft 306 kts 284°
2026-05-05 22:00 55.28082 13.48342 15331 ft 305 kts 285°
2026-05-05 22:00 55.28715 13.44802 14891 ft 304 kts 285°
2026-05-05 22:00 55.29346 13.41272 14448 ft 303 kts 285°
2026-05-05 22:00 55.29971 13.37753 14019 ft 302 kts 285°
2026-05-05 22:01 55.30594 13.34248 13632 ft 300 kts 285°
2026-05-05 22:01 55.31210 13.30768 13202 ft 298 kts 285°
2026-05-05 22:01 55.31822 13.27306 12782 ft 296 kts 285°
2026-05-05 22:01 55.32431 13.23858 12358 ft 295 kts 285°
2026-05-05 22:02 55.33035 13.20424 11942 ft 294 kts 285°
2026-05-05 22:02 55.33636 13.16999 11536 ft 293 kts 285°
2026-05-05 22:02 55.34236 13.13586 11137 ft 292 kts 285°
2026-05-05 22:02 55.34833 13.10178 10735 ft 291 kts 285°
2026-05-05 22:03 55.35426 13.06785 10352 ft 290 kts 285°
2026-05-05 22:03 55.36017 13.03399 9954 ft 289 kts 285°
2026-05-05 22:03 55.36602 13.00029 9528 ft 288 kts 285°
2026-05-05 22:03 55.37185 12.96671 9109 ft 287 kts 285°
2026-05-05 22:04 55.37762 12.93322 8689 ft 286 kts 285°
2026-05-05 22:04 55.38332 12.89985 8299 ft 284 kts 285°
2026-05-05 22:04 55.38896 12.86676 7919 ft 282 kts 285°
2026-05-05 22:04 55.39449 12.83376 7529 ft 280 kts 285°
2026-05-05 22:05 55.39980 12.80081 7151 ft 279 kts 285°
2026-05-05 22:05 55.40496 12.76793 6775 ft 279 kts 285°
2026-05-05 22:05 55.41000 12.73503 6403 ft 278 kts 285°
2026-05-05 22:05 55.41493 12.70219 6019 ft 278 kts 285°
2026-05-05 22:06 55.41966 12.66927 5622 ft 277 kts 285°
2026-05-05 22:06 55.42435 12.63633 5236 ft 277 kts 285°
2026-05-05 22:06 55.42902 12.60346 4852 ft 277 kts 285°
2026-05-05 22:06 55.43357 12.57057 4469 ft 276 kts 285°
2026-05-05 22:07 55.43809 12.53779 4111 ft 275 kts 285°
2026-05-05 22:07 55.44254 12.50520 3751 ft 273 kts 285°
2026-05-05 22:07 55.44807 12.47349 3384 ft 267 kts 294°
2026-05-05 22:07 55.45521 12.44460 3074 ft 246 kts 306°
2026-05-05 22:08 55.46734 12.42658 3032 ft 221 kts 346°
2026-05-05 22:08 55.48171 12.42735 2945 ft 202 kts 26°
2026-05-05 22:08 55.49113 12.44372 2753 ft 185 kts 57°
2026-05-05 22:08 55.49907 12.46054 2497 ft 173 kts 40°
2026-05-05 22:09 55.50795 12.47402 2273 ft 164 kts 41°
2026-05-05 22:09 55.51637 12.48685 2055 ft 155 kts 41°
2026-05-05 22:09 55.52425 12.49893 1868 ft 146 kts 41°
2026-05-05 22:09 55.53168 12.51033 1675 ft 138 kts 41°
2026-05-05 22:10 55.53887 12.52138 1469 ft 136 kts 41°
2026-05-05 22:10 55.54599 12.53232 1286 ft 135 kts 40°
2026-05-05 22:10 55.55306 12.54320 1090 ft 135 kts 40°
2026-05-05 22:10 55.56011 12.55408 908 ft 135 kts 40°
2026-05-05 22:11 55.56715 12.56498 735 ft 134 kts 40°
2026-05-05 22:11 55.57425 12.57567 561 ft 134 kts 37°
2026-05-05 22:11 55.58129 12.58656 383 ft 134 kts 39°
2026-05-05 22:11 55.58830 12.59744 201 ft 134 kts 38°
2026-05-05 22:12 55.59528 12.60823 36 ft 132 kts 38°
2026-05-05 22:12 55.59946 12.61465 24 ft 108 kts 41°
2026-05-05 22:12 55.60383 12.62147 23 ft 59 kts 41°
2026-05-05 22:12 55.60637 12.62540 26 ft 45 kts 41°
2026-05-05 22:13 55.60783 12.62747 26 ft 22 kts 30°
2026-05-05 22:13 55.60924 12.62851 25 ft 22 kts 13°
2026-05-05 22:13 55.61076 12.62904 24 ft 23 kts 13°
2026-05-05 22:13 55.61189 12.63013 24 ft 19 kts 41°
2026-05-05 22:14 55.61291 12.63171 24 ft 20 kts 41°
2026-05-05 22:14 55.61400 12.63339 24 ft 21 kts 40°
2026-05-05 22:14 55.61514 12.63516 25 ft 22 kts 41°
2026-05-05 22:14 55.61634 12.63701 24 ft 23 kts 41°
2026-05-05 22:15 55.61758 12.63893 24 ft 24 kts 41°
2026-05-05 22:15 55.61888 12.64085 26 ft 24 kts 31°
2026-05-05 22:15 55.62039 12.64209 25 ft 24 kts 25°
2026-05-05 22:15 55.62194 12.64339 22 ft 20 kts 25°
2026-05-05 22:16 55.62267 12.64467 23 ft 14 kts 66°
2026-05-05 22:16 55.62306 12.64627 25 ft 15 kts 66°
2026-05-05 22:16 55.62291 12.64799 25 ft 16 kts 122°
2026-05-05 22:16 55.62229 12.64967 24 ft 17 kts 123°
2026-05-05 22:17 55.62193 12.65139 24 ft 15 kts 64°
2026-05-05 22:17 55.62285 12.65201 24 ft 16 kts
2026-05-05 22:17 55.62397 12.65202 26 ft 15 kts 360°
2026-05-05 22:17 55.62440 12.65318 24 ft 14 kts 88°
2026-05-05 22:18 55.62443 12.65487 24 ft 9 kts 84°
2026-05-05 22:18 55.62496 12.65554 24 ft 10 kts 23°
2026-05-05 22:18 55.62515 12.65569 24 ft 0 kts 23°
2026-05-05 22:19 55.62516 12.65570 24 ft 0 kts 23°